Content
SEND FEEDBACK

Daily
Averages
Monthly
Summary
United States of America

CHICAGO, ILLINOIS


Home > North America > United States > Illinois
Elevation: 674 feet     Latitude: 41 59N     Longitude: 087 54W

WEATHER
 
SELECT A DAY
Number of Records: 195,110;   Date Range: 7/8/95 - 9/18/14
 
SHARE

PRINT THIS DATA

[ ← Previous Day ]
WEATHER ALMANAC - JANUARY 3, 2013
[ Next Day → ]
[ °C ]   °F
Weather ElementAverageHighLow
Temperature26.1 °F28.9 °F (8:52 am)18 °F (11:52 pm)
Dewpoint18.9 °F23 °F (7:52 am)12 °F (11:52 pm)
Humidity74.2 %81 % (4:52 am)64 % (11:52 am)
Barometer30.18 in30.29 in (8:52 pm)30.08 in (4:09 am)
Wind Speed9.4 mph15 mph (11:52 am)
Wind Gust21.9 mph (10:52 am)
Weather ElementAverage
Visibility8 mi
Wind DirectionW (267 °)

Weather ElementTotal
Precipitation---
Heating Degree Days41.6 (Base 65)
Averaged from 30 records on January 3, 2013
WEATHER CONDITIONS BREAKOUT
WIND DIRECTION BREAKOUT
WEATHER BY HOUR - JANUARY 3, 2013
[ °C ]   °F
Local TimeTemperatureDewpointHumidityBarometerVisibilityWind DirectionWind SpeedGust SpeedPrecipitationEventsConditions
2:52 AM25.0 °F18.0 °F75 %30.12 in9.0 miSW (230°)9.2 mphOvercast
3:02 AM24.8 °F17.6 °F74 %30.09 in9.0 miWSW (240°)6.9 mphOvercast
3:14 AM24.8 °F19.4 °F80 %30.09 in9.0 miWSW (250°)9.2 mphOvercast
3:52 AM26.1 °F19.9 °F78 %30.11 in8.0 miWest (260°)6.9 mphOvercast
4:09 AM26.6 °F19.4 °F74 %30.08 in7.0 miWest (260°)6.9 mphOvercast
4:19 AM26.6 °F19.4 °F74 %30.08 in7.0 miWest (270°)6.9 mphOvercast
4:52 AM26.1 °F21.0 °F81 %30.11 in6.0 miWSW (250°)9.2 mphHaze
5:16 AM26.6 °F21.2 °F80 %30.09 in6.0 miWest (260°)9.2 mphHaze
5:52 AM27.0 °F21.9 °F81 %30.14 in6.0 miWSW (250°)10.4 mph16.1 mphHaze
6:52 AM28.0 °F21.9 °F78 %30.15 in6.0 miWest (260°)6.9 mphHaze
7:52 AM28.0 °F23.0 °F81 %30.17 in5.0 miWest (270°)8.1 mphHaze
8:52 AM28.9 °F23.0 °F78 %30.18 in5.0 miWest (280°)9.2 mphHaze
9:07 AM28.4 °F21.2 °F74 %30.15 in5.0 miWNW (290°)9.2 mphHaze
9:52 AM28.9 °F21.0 °F72 %30.20 in7.0 miWNW (290°)9.2 mphOvercast
10:52 AM28.9 °F19.0 °F67 %30.19 in10.0 miWNW (300°)11.5 mph21.9 mphOvercast
11:52 AM28.9 °F18.0 °F64 %30.19 in10.0 miWNW (300°)15.0 mph20.7 mphOvercast
12:52 PM28.9 °F19.0 °F67 %30.19 in10.0 miWest (280°)10.4 mph19.6 mphOvercast
12:56 PM28.4 °F19.4 °F69 %30.16 in10.0 miWest (260°)11.5 mph19.6 mphOvercast
1:52 PM28.9 °F19.9 °F69 %30.19 in9.0 miWest (270°)10.4 mph18.4 mphMostly Cloudy
2:52 PM28.0 °F19.9 °F72 %30.21 in8.0 miWest (270°)9.2 mphOvercast
3:52 PM28.0 °F19.0 °F69 %30.24 in8.0 miWest (270°)9.2 mphOvercast
4:04 PM28.4 °F19.4 °F69 %30.21 in8.0 miWest (280°)10.4 mphOvercast
4:52 PM27.0 °F19.0 °F72 %30.25 in9.0 miWest (270°)11.5 mphOvercast
5:52 PM26.1 °F18.0 °F71 %30.27 in10.0 miWest (270°)12.7 mph18.4 mphOvercast
6:52 PM25.0 °F17.1 °F72 %30.27 in9.0 miWest (280°)10.4 mphOvercast
7:52 PM23.0 °F16.0 °F74 %30.28 in9.0 miWest (270°)8.1 mphClear
8:52 PM21.0 °F15.1 °F78 %30.29 in9.0 miWest (270°)11.5 mphClear
9:52 PM19.9 °F14.0 °F78 %30.28 in9.0 miWSW (250°)8.1 mphClear
10:52 PM19.0 °F12.9 °F77 %30.28 in9.0 miWSW (240°)6.9 mphClear
11:52 PM18.0 °F12.0 °F78 %30.28 in9.0 miWest (270°)8.1 mphClear
Hourly data recorded from KPWK, located miles away from Chicago, Illinois







STORIES FROM OUR PARTNERS